Regional Weather Roundup
Issued by NWS

Home | Current Version | Previous Version | Text Only | Print | Product List | Glossary Off
Versions: 1 2 3 4 5 6 7 8 9 10 11 12 13 14 15 16 17 18 19 20 21 22 23 24 25 26 27 28 29 30 31 32 33 34 35 36 37 38 39 40 41 42 43 44 45 46 47 48 49 50

000
ASUS43 KLMK 121810
RWRKY
KENTUCKY REGIONAL WEATHER ROUNDUP
NATIONAL WEATHER SERVICE LOUISVILLE KY
100 PM EST TUE DEC 12 2017

NOTE "FAIR" INDICATES FEW OR NO CLOUDS BELOW 12,000 FEET
WITH NO SIGNIFICANT WEATHER AND/OR OBSTRUCTIONS TO VISIBILITY.

KYZ001>023-026-027-061>063-070>075-121900-
WESTERN AND SOUTH CENTRAL KENTUCKY

CITY           SKY/WX    TMP DP  RH WIND       PRES   REMARKS
PADUCAH        SUNNY     38  12  34 NW10G23   30.18F WCI  31
HENDERSON      SUNNY     34  15  46 NW17G25   30.14F WCI  23
OWENSBORO      MOSUNNY   35  18  49 NW18      30.11F WCI  24
HOPKINSVILLE   MOSUNNY   38  17  41 NW16G24   30.11F WCI  30
BOWLING GREEN  MOSUNNY   38  18  44 NW7G21    30.07F WCI  33
GLASGOW        PTSUNNY   37  21  50 NW10G24   30.03F WCI  30
$$

KYZ024-025-028>034-038-045-046-053-121900-
NORTH CENTRAL KENTUCKY

CITY           SKY/WX    TMP DP  RH WIND       PRES   REMARKS
LOUISVILLE/SDF MOSUNNY   36  10  34 W18G29    30.02F WCI  26
LOUISVILLE/LOU MOSUNNY   35  14  42 W16G23    30.02F WCI  25
FORT KNOX      MOSUNNY   34   7  32 NW15G24   30.01F WCI  24
$$

KYZ035>037-039>044-047>052-055>060-089>105-121900-
NORTHEAST KENTUCKY

CITY           SKY/WX    TMP DP  RH WIND       PRES   REMARKS
LEXINGTON      PTSUNNY   33  18  53 NW18G31   29.94F WCI  22
COVINGTON      PTSUNNY   29  16  58 NW21G29   29.94F WCI  16
FRANKFORT      MOSUNNY   32  12  43 NW15G30   29.96F WCI  22
$$

KYZ054-064>069-076>088-106>120-121900-
SOUTHEAST KENTUCKY

CITY           SKY/WX    TMP DP  RH WIND       PRES   REMARKS
JACKSON        CLOUDY    34  19  54 NW7G20    29.86F WCI  28
LONDON         CLOUDY    33  19  56 NW20G25   29.92F WCI  21
SOMERSET       PTSUNNY   34  19  55 W13G21    29.97F WCI  25
MIDDLESBORO    CLOUDY    36  28  73 NW10G16   29.91F WCI  28
MONTICELLO     MOCLDY    36  17  46 NW20G26   29.99F WCI  25
$$





USA.gov is the U.S. government's official web portal to all federal, state and local government web resources and services.